| time (UTC) | temp C | wind direction | speed KPH | gust KPH | rain 1hr cm | rain 24hr cm | rain mn cm | humidity % | barometer mb |
| 20260505224550 | 23 | 198 | 3.2 | 14.5 | 0.00 | 0.00 | 0.00 | 35 | 1016.1 |
| 20260505223050 | 24 | 234 | 6.4 | 25.7 | 0.00 | 0.00 | 0.00 | 34 | 1016.0 |
| 20260505221549 | 25 | 290 | 9.7 | 24.1 | 0.00 | 0.00 | 0.00 | 32 | 1016.0 |
| 20260505220100 | 25 | 105 | 3.2 | 19.3 | 0.00 | 0.00 | 0.00 | 33 | 1016.0 |
| 20260505214551 | 25 | 244 | 4.8 | 19.3 | 0.00 | 0.00 | 0.00 | 34 | 1015.9 |
| 20260505213050 | 25 | 289 | 6.4 | 16.1 | 0.00 | 0.00 | 0.00 | 33 | 1015.9 |
| 20260505211552 | 25 | 250 | 3.2 | 17.7 | 0.00 | 0.00 | 0.00 | 33 | 1015.7 |
| 20260505210046 | 25 | 230 | 1.6 | 19.3 | 0.00 | 0.00 | 0.00 | 32 | 1015.4 |
| 20260505204547 | 26 | 246 | 6.4 | 16.1 | 0.00 | 0.00 | 0.00 | 32 | 1015.4 |
| 20260505203044 | 26 | 159 | 3.2 | 29.0 | 0.00 | 0.00 | 0.00 | 33 | 1015.7 |
| 20260505201544 | 26 | 251 | 4.8 | 17.7 | 0.00 | 0.00 | 0.00 | 34 | 1015.7 |
| 20260505200042 | 26 | 74 | 4.8 | 22.5 | 0.00 | 0.00 | 0.00 | 33 | 1015.6 |
| 20260505194544 | 26 | 193 | 3.2 | 17.7 | 0.00 | 0.00 | 0.00 | 35 | 1015.7 |
| 20260505193045 | 26 | 157 | 6.4 | 22.5 | 0.00 | 0.00 | 0.00 | 35 | 1016.0 |
| 20260505191550 | 26 | 207 | 3.2 | 14.5 | 0.00 | 0.00 | 0.00 | 36 | 1016.1 |
| 20260505190036 | 26 | 186 | 4.8 | 17.7 | 0.00 | 0.00 | 0.00 | 37 | 1016.3 |
| 20260505184534 | 26 | 146 | 8.0 | 25.7 | 0.00 | 0.00 | 0.00 | 35 | 1016.4 |
| 20260505183032 | 26 | 246 | 6.4 | 17.7 | 0.00 | 0.00 | 0.00 | 32 | 1016.7 |
| 20260505181529 | 26 | 163 | 6.4 | 29.0 | 0.00 | 0.00 | 0.00 | 34 | 1016.8 |
| 20260505180041 | 26 | 222 | 3.2 | 14.5 | 0.00 | 0.00 | 0.00 | 40 | 1016.9 |
| 20260505174535 | 26 | 248 | 6.4 | 24.1 | 0.00 | 0.00 | 0.00 | 39 | 1017.1 |
| 20260505173022 | 25 | 103 | 3.2 | 12.9 | 0.00 | 0.00 | 0.00 | 43 | 1017.2 |
| 20260505171519 | 25 | 129 | 4.8 | 19.3 | 0.00 | 0.00 | 0.00 | 43 | 1017.4 |
| 20260505170025 | 25 | 211 | 3.2 | 14.5 | 0.00 | 0.00 | 0.00 | 44 | 1017.6 |
| 20260505164517 | 25 | 226 | 3.2 | 9.7 | 0.00 | 0.00 | 0.00 | 47 | 1017.8 |
| 20260505163011 | 25 | 251 | 3.2 | 11.3 | 0.00 | 0.00 | 0.00 | 47 | 1018.0 |
| 20260505161509 | 25 | 171 | 3.2 | 11.3 | 0.00 | 0.00 | 0.00 | 47 | 1018.2 |
| 20260505153100 | 23 | 162 | 1.6 | 12.9 | 0.00 | 0.00 | 0.00 | 54 | 1018.7 |
| 20260505151554 | 22 | 225 | 3.2 | 17.7 | 0.00 | 0.00 | 0.00 | 52 | 1018.9 |
| 20260505124519 | 16 | 248 | 3.2 | 11.3 | 0.00 | 0.03 | 0.00 | 66 | 1019.3 |
| 20260505123015 | 16 | 245 | 3.2 | 11.3 | 0.00 | 0.03 | 0.00 | 69 | 1018.8 |
| 20260505121513 | 15 | 348 | 1.6 | 8.0 | 0.00 | 0.03 | 0.00 | 69 | 1018.9 |
| 20260505120006 | 15 | 182 | 0.0 | 8.0 | 0.00 | 0.03 | 0.00 | 72 | 1019.0 |
| 20260505114503 | 14 | 151 | 0.0 | 8.0 | 0.00 | 0.03 | 0.00 | 74 | 1019.2 |
| 20260505113001 | 13 | 241 | 0.0 | 3.2 | 0.00 | 0.03 | 0.00 | 79 | 1019.1 |
| 20260505111609 | 12 | 207 | 0.0 | 3.2 | 0.00 | 0.03 | 0.00 | 82 | 1019.1 |
| 20260505101553 | 13 | 236 | 1.6 | 6.4 | 0.00 | 0.03 | 0.00 | 72 | 1019.3 |
| 20260505100052 | 13 | 303 | 0.0 | 6.4 | 0.00 | 0.03 | 0.00 | 71 | 1019.1 |
| 20260505094550 | 12 | 254 | 0.0 | 4.8 | 0.00 | 0.03 | 0.00 | 71 | 1019.1 |
| 20260505093048 | 12 | 265 | 0.0 | 4.8 | 0.00 | 0.03 | 0.00 | 71 | 1018.8 |
| 20260505091546 | 13 | 167 | 0.0 | 4.8 | 0.00 | 0.03 | 0.00 | 70 | 1018.3 |
| 20260505090053 | 13 | 50 | 0.0 | 4.8 | 0.00 | 0.03 | 0.00 | 70 | 1018.3 |
| 20260505084546 | 13 | 232 | 0.0 | 0.0 | 0.00 | 0.00 | 0.00 | 69 | 1018.2 |
| 20260505083059 | 13 | 210 | 1.6 | 6.4 | 0.00 | 0.03 | 0.00 | 68 | 1018.3 |
| 20260505081548 | 13 | 226 | 1.6 | 12.9 | 0.00 | 0.03 | 0.00 | 69 | 1018.3 |
| 20260505080043 | 12 | 196 | 0.0 | 3.2 | 0.00 | 0.03 | 0.00 | 70 | 1018.3 |
| 20260505074545 | 12 | 250 | 1.6 | 4.8 | 0.00 | 0.03 | 0.00 | 70 | 1018.3 |
| 20260505073042 | 12 | 192 | 0.0 | 3.2 | 0.00 | 0.03 | 0.00 | 70 | 1018.2 |
| 20260505071542 | 12 | 214 | 1.6 | 8.0 | 0.00 | 0.03 | 0.00 | 70 | 1018.2 |
| 20260505070047 | 12 | 220 | 0.0 | 3.2 | 0.00 | 0.03 | 0.00 | 69 | 1018.3 |
| 20260505064552 | 13 | 131 | 1.6 | 6.4 | 0.00 | 0.03 | 0.00 | 69 | 1018.4 |
| 20260505063035 | 13 | 222 | 0.0 | 6.4 | 0.00 | 0.03 | 0.00 | 68 | 1018.4 |
| 20260505061539 | 13 | 282 | 0.0 | 4.8 | 0.00 | 0.03 | 0.00 | 67 | 1018.6 |
| 20260505060032 | 13 | 244 | 0.0 | 4.8 | 0.00 | 0.03 | 0.00 | 66 | 1018.5 |
| 20260505054529 | 13 | 19 | 0.0 | 3.2 | 0.00 | 0.03 | 0.00 | 65 | 1018.6 |
| 20260505053027 | 13 | 229 | 1.6 | 8.0 | 0.00 | 0.03 | 0.00 | 63 | 1018.6 |
| 20260505051525 | 13 | 236 | 0.0 | 14.5 | 0.00 | 0.03 | 0.00 | 62 | 1018.7 |
| 20260505041527 | 14 | 161 | 0.0 | 4.8 | 0.00 | 0.03 | 0.00 | 57 | 1018.8 |
| 20260505040016 | 14 | 175 | 0.0 | 9.7 | 0.00 | 0.03 | 0.00 | 55 | 1018.9 |
| 20260505034515 | 15 | 216 | 0.0 | 8.0 | 0.00 | 0.03 | 0.03 | 54 | 1018.8 |
| 20260505033018 | 15 | 193 | 1.6 | 8.0 | 0.00 | 0.03 | 0.03 | 53 | 1019.0 |
| 20260505031513 | 15 | 120 | 1.6 | 12.9 | 0.00 | 0.03 | 0.03 | 52 | 1019.0 |
| 20260505030013 | 15 | 147 | 3.2 | 8.0 | 0.00 | 0.03 | 0.03 | 51 | 1019.2 |
| 20260505024532 | 15 | 309 | 1.6 | 6.4 | 0.00 | 0.03 | 0.03 | 50 | 1019.1 |
| 20260505023012 | 15 | 145 | 0.0 | 4.8 | 0.00 | 0.03 | 0.03 | 50 | 1019.3 |
| 20260505021511 | 15 | 94 | 0.0 | 4.8 | 0.00 | 0.03 | 0.03 | 50 | 1019.2 |
| 20260505020011 | 16 | 144 | 0.0 | 3.2 | 0.00 | 0.03 | 0.03 | 49 | 1019.2 |
| 20260505014510 | 16 | 186 | 0.0 | 8.0 | 0.00 | 0.03 | 0.03 | 49 | 1019.1 |
| 20260505013019 | 16 | 146 | 0.0 | 6.4 | 0.00 | 0.03 | 0.03 | 48 | 1019.0 |
| 20260505011510 | 16 | 88 | 0.0 | 4.8 | 0.00 | 0.03 | 0.03 | 48 | 1019.0 |
| 20260505010009 | 16 | 116 | 0.0 | 3.2 | 0.00 | 0.03 | 0.03 | 47 | 1018.7 |
| 20260505004510 | 17 | 153 | 0.0 | 3.2 | 0.00 | 0.03 | 0.03 | 46 | 1018.6 |
| 20260505003010 | 17 | 198 | 0.0 | 6.4 | 0.00 | 0.03 | 0.03 | 45 | 1018.5 |
| 20260505001507 | 17 | 125 | 1.6 | 11.3 | 0.00 | 0.03 | 0.03 | 44 | 1018.4 |
| 20260505000018 | 18 | 150 | 0.0 | 8.0 | 0.00 | 0.03 | 0.03 | 43 | 1018.1 |
| 20260504234507 | 18 | 181 | 1.6 | 8.0 | 0.00 | 0.03 | 0.03 | 43 | 1017.9 |
| 20260504233010 | 18 | 216 | 0.0 | 9.7 | 0.00 | 0.03 | 0.03 | 42 | 1017.7 |
| 20260504231520 | 19 | 244 | 3.2 | 9.7 | 0.00 | 0.03 | 0.03 | 41 | 1017.5 |
| 20260504230005 | 19 | 194 | 1.6 | 11.3 | 0.00 | 0.03 | 0.03 | 40 | 1017.4 |